BEESAT-2

Last updated on Thu Feb 01 2024 00:02:58 GMT+0000 (Coordinated Universal Time)

1 39136U 13015G 24031.32095761 .05307578 74480-5 14523-2 0 9995 2 39136 64.8320 285.9357 0009415 232.2171 127.8156 16.27546210597693

Satellite not in orbit